Dewpoint
18 19 22 23 23 24 25 26 27 29 30 31 33 34 35 38 42 48 58 58 58 58 57 57 56 54 52 52 53 52 52 52 49 50 51 51 52 52 52 53 54 56 56
18 19 21 24 24 24 25 26 27 29 30 33 34 35 37 38 43 54 58 57 57 57 56 57 55 52 52 52 52 52 52 51 49 49 49 50 51 52 51 52 51 52 54
17 18 20 23 23 24 25 26 28 31 34 35 36 37 37 42 46 55 57 58 57 57 56 56 55 52 52 52 52 52 51 48 49 48 48 50 51 51 51 51 52 53 52
16 17 19 21 23 23 26 26 29 34 34 35 38 40 44 46 47 51 56 56 58 57 57 56 55 53 51 52 51 52 51 49 48 48 49 49 50 51 52 51 51 53 53
15 17 18 21 23 24 24 25 29 31 32 34 37 38 40 40 41 44 56 57 57 57 57 56 55 53 49 51 51 52 51 50 48 48 49 49 49 50 50 51 51 52 53
14 15 18 20 22 23 23 24 27 28 31 32 33 35 36 38 41 44 45 56 57 57 56 56 55 49 49 49 48 49 50 50 49 48 48 48 49 49 50 50 50 49 49
14 15 17 18 20 21 23 23 25 27 29 29 31 33 35 37 41 42 46 52 56 56 56 56 55 54 51 52 49 48 48 48 49 49 49 49 49 50 50 50 50 49 49
14 15 17 16 18 21 22 22 24 27 27 27 29 31 33 35 39 39 41 45 50 56 56 56 55 54 53 52 52 51 50 49 49 49 51 50 50 50 51 51 51 50 51
11 14 16 17 17 19 20 22 23 26 26 27 28 30 31 33 37 37 37 39 40 44 47 55 55 54 51 50 52 50 49 50 48 47 48 48 48 48 50 51 51 50 50
6 9 13 17 18 18 20 23 24 26 27 27 27 28 32 31 35 36 35 34 35 37 40 40 40 42 48 50 52 51 50 50 50 50 49 49 48 49 47 52 51 50 50
4 5 9 12 16 19 20 22 24 25 26 26 26 27 28 32 31 35 35 32 32 33 34 35 37 39 40 43 46 53 51 51 50 50 50 51 51 51 51 51 52 51 50
4 3 7 8 9 15 20 21 24 25 24 24 25 26 26 28 31 32 34 34 33 30 31 32 34 37 38 41 44 47 49 49 52 51 51 50 50 51 51 52 52 53 52
2 2 6 6 4 8 16 20 19 23 23 23 23 24 25 27 27 29 31 32 32 28 29 32 33 34 34 36 37 40 46 51 52 51 51 51 51 52 52 53 53 53 53
2 2 5 4 6 4 8 13 16 20 21 22 21 23 23 25 26 27 27 27 27 27 27 26 28 31 31 31 31 32 34 37 47 51 51 52 53 52 52 53 52 53 53
3 2 5 6 5 3 3 12 13 20 21 21 21 19 22 23 24 25 26 25 25 24 23 22 21 22 23 24 25 27 29 30 31 33 37 50 52 52 51 52 52 52 51
3 2 5 6 6 4 3 3 15 17 20 20 21 20 17 21 23 24 24 25 24 23 21 20 20 20 18 20 21 22 24 26 26 28 30 33 36 49 51 50 51 51 50
6 4 4 8 6 5 3 3 2 5 14 19 19 19 19 19 20 22 21 21 23 21 19 19 19 19 18 19 20 20 20 23 26 26 27 28 30 32 34 48 49 50 50
11 10 10 10 9 8 4 5 4 3 2 7 15 16 18 18 19 19 19 17 15 17 17 17 18 18 19 19 19 19 20 21 22 23 25 26 27 28 30 33 38 47 48
9 7 8 9 9 12 7 6 7 5 4 6 9 11 12 15 15 16 16 11 13 14 14 15 16 17 17 18 19 20 20 21 22 21 22 23 25 26 27 29 31 34 38
7 10 11 9 11 12 9 7 8 8 8 7 9 10 7 8 8 8 9 9 10 12 13 14 15 16 17 18 19 20 20 20 21 21 21 22 23 25 25 27 28 29 31
8 7 12 13 11 12 12 10 9 9 8 9 8 12 15 8 7 8 8 9 10 11 11 13 14 15 16 17 18 18 19 20 20 20 21 22 23 23 24 26 27 28 29
7 8 10 12 12 13 13 12 11 12 10 10 10 10 13 9 9 8 9 10 11 12 12 12 13 14 15 16 17 17 18 19 20 20 21 21 22 23 24 24 25 26 27
6 7 7 9 11 12 13 13 12 12 11 10 10 10 10 9 9 9 9 9 11 12 12 13 13 12 14 15 17 19 19 20 20 20 20 20 21 22 23 23 23 23 24
6 7 7 7 8 10 11 11 11 11 11 11 11 11 11 11 10 9 9 10 10 11 12 13 13 13 11 12 14 17 20 23 22 21 20 20 20 21 21 21 22 23 23
9 8 7 7 9 10 10 10 10 10 10 10 10 10 11 11 11 11 11 11 11 11 11 13 14 13 13 11 11 13 17 23 20 20 20 19 19 20 20 20 20 21 22
9 9 9 8 9 9 9 9 10 10 10 10 10 10 10 10 10 11 12 12 11 11 11 12 13 12 12 13 13 14 17 22 19 19 19 19 18 18 20 19 19 20 21
Lifted_Index
16 14 12 11 11 12 13 14 14 14 14 14 13 11 8 5 3 2 1 1 1 1 2 3 3 4 4 4 4 5 5 5 5 6 8 8 8 9 9 9 9 9 8
16 14 12 11 11 12 13 14 14 13 13 13 13 11 8 5 3 2 2 2 2 2 2 3 3 3 4 4 5 5 5 5 5 6 8 8 9 9 9 9 9 9 9
16 14 11 11 11 11 12 13 14 13 11 11 11 10 7 5 3 2 2 2 2 2 2 3 3 3 3 4 5 5 5 4 4 5 7 8 9 9 9 9 9 9 9
16 14 12 11 11 12 13 13 13 12 9 9 10 10 8 5 3 2 2 2 2 2 2 3 3 3 3 3 4 5 5 4 4 5 6 7 8 9 9 9 9 9 9
17 15 12 11 11 12 13 13 12 11 9 9 10 9 8 5 3 2 3 3 2 2 2 3 3 3 2 3 3 4 5 4 4 5 6 7 8 8 8 9 9 9 9
18 16 14 12 12 12 12 12 11 11 10 10 9 8 6 5 4 3 3 3 3 3 3 3 3 3 3 2 2 3 4 4 5 5 6 7 7 8 8 8 9 9 9
19 18 16 14 12 12 11 11 11 11 11 11 9 7 5 5 4 4 3 3 3 3 3 3 3 3 3 2 2 2 3 4 4 5 6 7 7 7 7 8 8 9 9
20 19 17 16 14 13 12 11 11 12 12 11 10 7 5 4 4 4 3 3 3 3 3 4 4 4 4 3 2 2 2 3 4 5 6 6 6 6 6 7 8 8 8
21 20 19 18 17 15 14 13 13 13 13 13 10 7 5 5 5 4 3 3 3 3 3 3 4 4 4 3 3 2 2 2 3 4 5 5 5 6 6 7 8 8 9
22 22 21 20 19 18 16 15 14 14 14 13 11 8 7 7 7 6 5 4 3 3 3 3 4 4 4 4 3 2 2 2 2 3 3 4 5 5 6 7 8 8 8
23 23 23 22 21 20 19 17 16 15 14 12 10 9 8 9 10 9 8 6 5 4 3 3 3 4 4 4 4 3 3 3 2 2 3 3 4 6 6 7 8 8 8
24 24 24 23 22 22 21 20 18 16 15 12 10 9 10 11 12 12 11 9 8 6 4 4 4 4 4 4 4 4 4 4 3 3 3 3 4 5 6 7 7 7 8
23 24 24 24 23 23 22 21 19 17 15 13 11 10 11 13 14 15 13 12 10 8 7 6 6 5 4 4 4 4 4 5 4 4 3 3 3 4 5 5 6 7 7
23 23 24 24 24 24 23 22 21 19 18 16 14 13 13 14 15 16 15 14 13 11 10 9 8 6 4 4 4 4 4 5 5 5 4 4 3 3 3 4 4 5 6
23 23 24 24 25 24 24 23 23 22 21 20 19 18 17 17 18 18 17 16 15 14 12 10 8 7 5 5 4 4 4 4 4 4 5 5 4 4 3 3 3 3 4
23 23 24 24 25 25 25 24 24 24 24 23 23 22 21 21 21 21 20 19 18 17 14 11 9 8 7 6 6 5 5 5 5 5 5 5 5 5 4 4 3 3 3
23 23 24 25 25 25 25 25 25 25 25 25 25 24 24 24 23 23 22 21 20 18 16 14 12 12 11 10 9 8 7 7 7 6 6 6 5 5 5 4 4 3 3
23 24 24 25 25 26 26 26 25 25 25 25 26 26 25 25 25 25 24 23 21 20 19 17 17 16 15 15 13 12 11 10 9 8 8 7 6 5 5 5 4 4 4
24 24 24 25 26 26 26 26 26 26 25 26 26 26 26 26 26 26 25 24 23 22 21 21 20 20 20 19 18 17 15 14 13 11 10 9 8 7 6 5 5 4 4
24 24 25 25 26 26 26 26 26 26 26 26 26 27 27 27 26 26 26 26 25 25 24 23 23 22 22 22 21 20 19 18 17 16 14 13 12 10 9 8 7 6 6
24 24 24 25 25 25 25 26 26 26 26 26 26 27 27 27 27 27 27 27 27 27 27 26 25 24 24 24 23 23 22 21 20 20 19 18 16 15 13 11 10 8 8
23 24 24 24 25 25 25 25 26 26 26 26 26 27 27 27 27 27 28 28 29 29 29 28 27 27 26 26 25 25 24 23 23 22 21 21 20 18 17 15 13 11 10
23 23 24 24 25 25 25 25 25 26 26 26 26 27 27 27 28 28 28 29 29 29 30 30 29 28 28 28 28 27 26 25 25 24 23 22 21 21 20 18 16 15 13
23 24 24 24 24 24 25 25 25 25 26 26 27 27 27 28 28 28 29 29 29 30 30 30 30 30 29 29 29 29 28 28 27 26 25 24 23 22 21 20 19 18 16
23 23 24 24 24 24 24 25 25 25 26 26 27 27 27 28 28 28 29 29 30 30 30 30 30 30 30 30 30 29 29 29 29 28 27 25 24 23 22 22 21 20 19
23 23 23 24 24 24 24 25 25 25 26 26 27 27 28 28 28 29 29 29 29 29 30 30 30 30 30 30 30 30 30 30 29 29 27 26 25 24 23 22 21 20 20